Tracking 28052 objects as of 22-Sep-2023
HD Live streaming from Space Station
objects crossing your sky now

THORAD AGENA D DEB

Track THORAD AGENA D DEB now!
10-day predictions


NORAD ID: 4754
Int'l Code: 1970-025DC
Perigee: 833.1 km
Apogee: 855.7 km
Inclination: 99.6 °
Period: 101.7 minutes
Semi major axis: 7215 km
RCS: 0.0631 m2 (small)
Launch date: April 8, 1970
Source: United States (US)
Launch site: AIR FORCE WESTERN TEST RANGE (AFWTR)

Note: This is SATELLITE DEBRIS
Your satellite tracking list
Your tracking list is empty




NASA's NSSDC Master Catalog

Two Line Element Set (TLE):
1 04754U 70025DC  23264.85636997  .00004734  00000-0  24001-2 0  9991
2 04754  99.6003 117.3644 0015613 239.3167 120.6466 14.16481683691353
Source of the keplerian elements: AFSPC